Location: Wanzleben
(52.0609°N, 11.4408°E)
Time: 07:40:41
(UTC+00:00)

OBJECT-B - Pass Details

Date: 18 September 2020
Orbit: 421 x 433 km, 97.0° (Epoch: 09 October)

Event Time Altitude Azimuth Distance (km) Brightness Sun altitude
Exits shadow 19:01:25 35° 141° (SE) 709 1.4 -15.8°
Maximum altitude 19:02:35 62° 74° (ENE) 483 0.8 -15.9°
Drops below altitude 10° 19:05:48 10° 353° (N) 1,526 4.0 -16.4°
Sets 19:07:50 0° 350° (N) 2,399 5.1 -16.7°
